Powrót do katalogu

STARLINK-4443

AktywnyŁącznośćSSO
NORAD 53508·PAYLOAD·🇺🇸 United States

Wystrzelony Aug 12, 2022 z Vandenberg Space Force Base

Loading…

Następne Przeloty (najbliższe 24 godziny)

TLE

ŚwieżeSource: CelesTrak SupGP

Epoka: Sep 15, 2026, 03:03 UTC

1 53508C 22099AV  26258.12756944 -.00020273  00000+0 -62845-3 0  2585
2 53508  97.2863  15.8807 0001409  95.7473 167.9440 15.33493475    12

Śledź STARLINK-4443 w czasie rzeczywistym z AllMySat

Download on the App Store